Time,TemperatureF,DewpointF,PressureIn,WindDirection,WindDirectionDegrees,WindSpeedMPH,WindSpeedGustMPH,Humidity,HourlyPrecipIn,Conditions,Clouds,dailyrainin,SoftwareType,DateUTC
2013-01-07 00:01:00,42.2,37.7,30.29,NE,51,1.0,1.0,84,0.00,,,0.00,Wunderground v.1.15,2013-01-07 06:01:00,
2013-01-07 00:10:00,42.3,37.8,30.29,North,355,1.0,1.0,84,0.00,,,0.00,Wunderground v.1.15,2013-01-07 06:10:00,
2013-01-07 00:16:00,42.4,37.9,30.29,NNE,17,2.0,2.0,84,0.00,,,0.00,Wunderground v.1.15,2013-01-07 06:16:00,
2013-01-07 00:21:00,42.5,38.0,30.29,NNE,30,2.0,3.0,84,0.00,,,0.00,Wunderground v.1.15,2013-01-07 06:21:00,
2013-01-07 00:31:00,42.8,38.3,30.29,NNE,19,2.0,2.0,84,0.00,,,0.00,Wunderground v.1.15,2013-01-07 06:31:00,
2013-01-07 00:40:00,43.0,38.5,30.29,East,81,2.0,3.0,84,0.00,,,0.00,Wunderground v.1.15,2013-01-07 06:40:00,
2013-01-07 00:46:00,43.0,38.5,30.29,NE,44,1.0,3.0,84,0.00,,,0.00,Wunderground v.1.15,2013-01-07 06:46:00,
2013-01-07 00:56:00,42.9,38.4,30.28,NNE,19,2.0,2.0,84,0.00,,,0.00,Wunderground v.1.15,2013-01-07 06:56:00,
2013-01-07 01:05:00,42.7,38.2,30.28,ENE,63,1.0,9.0,84,0.00,,,0.00,Wunderground v.1.15,2013-01-07 07:05:00,
2013-01-07 01:10:00,42.6,38.1,30.28,NNE,32,1.0,1.0,84,0.00,,,0.00,Wunderground v.1.15,2013-01-07 07:10:00,
2013-01-07 01:16:00,42.5,38.0,30.28,NNE,15,1.0,1.0,84,0.00,,,0.00,Wunderground v.1.15,2013-01-07 07:16:00,
2013-01-07 01:21:00,42.4,37.9,30.28,NNE,26,1.0,2.0,84,0.00,,,0.00,Wunderground v.1.15,2013-01-07 07:21:00,
2013-01-07 01:26:00,42.4,37.9,30.28,NE,49,1.0,2.0,84,0.00,,,0.00,Wunderground v.1.15,2013-01-07 07:26:00,
2013-01-07 01:35:00,42.3,37.8,30.27,NNE,19,1.0,3.0,84,0.00,,,0.00,Wunderground v.1.15,2013-01-07 07:35:00,
2013-01-07 01:41:00,42.2,37.7,30.27,NNE,22,1.0,1.0,84,0.00,,,0.00,Wunderground v.1.15,2013-01-07 07:41:00,
2013-01-07 01:50:00,42.0,37.5,30.28,NNE,25,1.0,1.0,84,0.00,,,0.00,Wunderground v.1.15,2013-01-07 07:50:00,
2013-01-07 01:56:00,41.8,37.3,30.27,NNE,19,0.0,1.0,84,0.00,,,0.00,Wunderground v.1.15,2013-01-07 07:56:00,
2013-01-07 02:05:00,41.5,37.0,30.27,NNE,27,0.0,0.0,84,0.00,,,0.00,Wunderground v.1.15,2013-01-07 08:05:00,
2013-01-07 02:10:00,41.4,36.9,30.27,NNE,27,0.0,0.0,84,0.00,,,0.00,Wunderground v.1.15,2013-01-07 08:10:00,
2013-01-07 02:16:00,41.2,36.7,30.27,NNE,27,0.0,0.0,84,0.00,,,0.00,Wunderground v.1.15,2013-01-07 08:16:00,
2013-01-07 02:21:00,41.0,36.5,30.27,NNE,24,0.0,0.0,84,0.00,,,0.00,Wunderground v.1.15,2013-01-07 08:21:00,
2013-01-07 02:26:00,40.9,36.4,30.27,NNE,24,0.0,0.0,84,0.00,,,0.00,Wunderground v.1.15,2013-01-07 08:26:00,
2013-01-07 02:31:00,40.8,36.3,30.27,NNE,24,0.0,0.0,84,0.00,,,0.00,Wunderground v.1.15,2013-01-07 08:31:00,
2013-01-07 02:41:00,40.5,36.0,30.27,NNE,24,0.0,0.0,84,0.00,,,0.00,Wunderground v.1.15,2013-01-07 08:41:00,
2013-01-07 02:46:00,40.4,35.9,30.27,NNE,24,0.0,0.0,84,0.00,,,0.00,Wunderground v.1.15,2013-01-07 08:46:00,
2013-01-07 02:55:00,40.1,35.7,30.27,NNE,24,0.0,0.0,84,0.00,,,0.00,Wunderground v.1.15,2013-01-07 08:55:00,
2013-01-07 03:06:00,39.9,35.5,30.27,NE,42,0.0,0.0,84,0.00,,,0.00,Wunderground v.1.15,2013-01-07 09:06:00,
2013-01-07 03:16:00,39.7,35.3,30.27,NE,44,0.0,0.0,84,0.00,,,0.00,Wunderground v.1.15,2013-01-07 09:16:00,
2013-01-07 03:21:00,39.6,35.2,30.27,NE,44,0.0,0.0,84,0.00,,,0.00,Wunderground v.1.15,2013-01-07 09:21:00,
2013-01-07 03:30:00,39.4,35.0,30.28,NE,44,0.0,0.0,84,0.00,,,0.00,Wunderground v.1.15,2013-01-07 09:30:00,
2013-01-07 03:36:00,39.3,34.9,30.28,NE,44,0.0,0.0,84,0.00,,,0.00,Wunderground v.1.15,2013-01-07 09:36:00,
2013-01-07 03:41:00,39.2,34.8,30.28,NE,44,0.0,0.0,84,0.00,,,0.00,Wunderground v.1.15,2013-01-07 09:41:00,
2013-01-07 03:46:00,39.2,34.8,30.28,NE,44,0.0,0.0,84,0.00,,,0.00,Wunderground v.1.15,2013-01-07 09:46:00,
2013-01-07 03:51:00,39.1,34.7,30.28,NE,44,0.0,0.0,84,0.00,,,0.00,Wunderground v.1.15,2013-01-07 09:51:00,
2013-01-07 04:00:00,38.8,34.4,30.28,NE,44,0.0,0.0,84,0.00,,,0.00,Wunderground v.1.15,2013-01-07 10:00:00,
2013-01-07 04:06:00,38.7,34.3,30.28,NE,44,0.0,0.0,84,0.00,,,0.00,Wunderground v.1.15,2013-01-07 10:06:00,
2013-01-07 04:16:00,38.5,34.1,30.28,NE,44,0.0,0.0,84,0.00,,,0.00,Wunderground v.1.15,2013-01-07 10:16:00,
2013-01-07 04:21:00,38.3,33.9,30.28,NE,44,0.0,0.0,84,0.00,,,0.00,Wunderground v.1.15,2013-01-07 10:21:00,
2013-01-07 04:30:00,38.1,33.7,30.28,NE,44,0.0,0.0,84,0.00,,,0.00,Wunderground v.1.15,2013-01-07 10:30:00,
2013-01-07 04:36:00,38.0,33.6,30.28,NE,44,0.0,0.0,84,0.00,,,0.00,Wunderground v.1.15,2013-01-07 10:36:00,
2013-01-07 04:46:00,37.7,33.3,30.28,NE,44,0.0,0.0,84,0.00,,,0.00,Wunderground v.1.15,2013-01-07 10:46:00,
2013-01-07 04:56:00,37.4,33.0,30.28,NE,44,0.0,0.0,84,0.00,,,0.00,Wunderground v.1.15,2013-01-07 10:56:00,
2013-01-07 05:00:00,37.3,32.9,30.28,NE,44,0.0,0.0,84,0.00,,,0.00,Wunderground v.1.15,2013-01-07 11:00:00,
2013-01-07 05:06:00,37.2,32.8,30.28,NE,44,0.0,0.0,84,0.00,,,0.00,Wunderground v.1.15,2013-01-07 11:06:00,
2013-01-07 05:16:00,37.1,32.7,30.28,NE,44,0.0,0.0,84,0.00,,,0.00,Wunderground v.1.15,2013-01-07 11:16:00,
2013-01-07 05:21:00,37.0,32.6,30.28,NE,44,0.0,0.0,84,0.00,,,0.00,Wunderground v.1.15,2013-01-07 11:21:00,
2013-01-07 05:30:00,36.8,32.4,30.28,NE,44,0.0,0.0,84,0.00,,,0.00,Wunderground v.1.15,2013-01-07 11:30:00,
2013-01-07 05:36:00,36.8,32.4,30.28,NE,44,0.0,0.0,84,0.00,,,0.00,Wunderground v.1.15,2013-01-07 11:36:00,
2013-01-07 05:41:00,36.7,32.3,30.27,NE,44,0.0,0.0,84,0.00,,,0.00,Wunderground v.1.15,2013-01-07 11:41:00,
2013-01-07 05:51:00,36.7,32.3,30.28,NE,51,0.0,0.0,84,0.00,,,0.00,Wunderground v.1.15,2013-01-07 11:51:00,
2013-01-07 06:00:00,36.6,32.2,30.28,NE,51,0.0,0.0,84,0.00,,,0.00,Wunderground v.1.15,2013-01-07 12:00:00,
2013-01-07 06:06:00,36.6,32.2,30.28,NE,51,0.0,0.0,84,0.00,,,0.00,Wunderground v.1.15,2013-01-07 12:06:00,
2013-01-07 06:11:00,36.7,32.3,30.28,NE,55,0.0,0.0,84,0.00,,,0.00,Wunderground v.1.15,2013-01-07 12:11:00,
2013-01-07 06:16:00,36.7,32.6,30.28,ENE,65,0.0,0.0,85,0.00,,,0.00,Wunderground v.1.15,2013-01-07 12:16:00,
2013-01-07 06:21:00,36.9,32.8,30.28,ENE,66,0.0,0.0,85,0.00,,,0.00,Wunderground v.1.15,2013-01-07 12:21:00,
2013-01-07 06:30:00,37.1,33.0,30.29,ENE,61,0.0,0.0,85,0.00,,,0.00,Wunderground v.1.15,2013-01-07 12:30:00,
2013-01-07 06:36:00,37.1,33.0,30.29,ENE,71,0.0,3.0,85,0.00,,,0.00,Wunderground v.1.15,2013-01-07 12:36:00,
2013-01-07 06:41:00,37.2,33.1,30.29,ENE,65,0.0,1.0,85,0.00,,,0.00,Wunderground v.1.15,2013-01-07 12:41:00,
2013-01-07 06:46:00,37.2,33.1,30.29,ENE,61,0.0,1.0,85,0.00,,,0.00,Wunderground v.1.15,2013-01-07 12:46:00,
2013-01-07 06:51:00,37.3,33.2,30.29,ENE,65,0.0,0.0,85,0.00,,,0.00,Wunderground v.1.15,2013-01-07 12:51:00,
2013-01-07 07:00:00,37.6,33.5,30.29,NE,42,1.0,1.0,85,0.00,,,0.00,Wunderground v.1.15,2013-01-07 13:00:00,
2013-01-07 07:06:00,37.7,33.6,30.29,NE,40,0.0,1.0,85,0.00,,,0.00,Wunderground v.1.15,2013-01-07 13:06:00,
2013-01-07 07:15:00,37.7,33.6,30.29,NE,50,0.0,1.0,85,0.00,,,0.00,Wunderground v.1.15,2013-01-07 13:15:00,
2013-01-07 07:20:00,37.8,33.7,30.29,NE,41,0.0,2.0,85,0.00,,,0.00,Wunderground v.1.15,2013-01-07 13:20:00,
2013-01-07 07:26:00,37.9,33.8,30.29,NE,40,1.0,3.0,85,0.00,,,0.00,Wunderground v.1.15,2013-01-07 13:26:00,
2013-01-07 07:31:00,38.1,34.0,30.29,NNE,32,1.0,1.0,85,0.00,,,0.00,Wunderground v.1.15,2013-01-07 13:31:00,
2013-01-07 07:41:00,38.7,34.6,30.30,NE,42,1.0,2.0,85,0.00,,,0.00,Wunderground v.1.15,2013-01-07 13:41:00,
2013-01-07 07:50:00,39.3,35.2,30.31,ENE,63,1.0,1.0,85,0.00,,,0.00,Wunderground v.1.15,2013-01-07 13:50:00,
2013-01-07 07:56:00,39.8,35.7,30.31,NNE,28,1.0,1.0,85,0.00,,,0.00,Wunderground v.1.15,2013-01-07 13:56:00,
2013-01-07 08:01:00,40.3,36.1,30.31,ENE,78,1.0,1.0,85,0.00,,,0.00,Wunderground v.1.15,2013-01-07 14:01:00,
2013-01-07 08:10:00,40.9,37.0,30.32,ENE,68,0.0,0.0,86,0.00,,,0.00,Wunderground v.1.15,2013-01-07 14:10:00,
2013-01-07 08:16:00,41.2,37.0,30.32,ENE,67,0.0,1.0,85,0.00,,,0.00,Wunderground v.1.15,2013-01-07 14:16:00,
2013-01-07 08:20:00,41.5,37.6,30.32,NNE,28,2.0,2.0,86,0.00,,,0.00,Wunderground v.1.15,2013-01-07 14:20:00,
2013-01-07 08:26:00,41.9,37.7,30.32,ENE,65,2.0,2.0,85,0.00,,,0.00,Wunderground v.1.15,2013-01-07 14:26:00,
2013-01-07 08:31:00,42.1,38.2,30.33,ENE,61,2.0,2.0,86,0.00,,,0.00,Wunderground v.1.15,2013-01-07 14:31:00,
2013-01-07 08:36:00,42.3,38.4,30.33,ENE,64,1.0,2.0,86,0.00,,,0.00,Wunderground v.1.15,2013-01-07 14:36:00,
2013-01-07 08:41:00,42.6,38.7,30.33,ENE,57,2.0,5.0,86,0.00,,,0.00,Wunderground v.1.15,2013-01-07 14:41:00,
2013-01-07 08:50:00,43.4,39.5,30.33,ENE,70,2.0,5.0,86,0.00,,,0.00,Wunderground v.1.15,2013-01-07 14:50:00,
2013-01-07 08:56:00,43.9,39.7,30.33,ENE,66,2.0,5.0,85,0.00,,,0.00,Wunderground v.1.15,2013-01-07 14:56:00,
2013-01-07 09:01:00,44.4,40.2,30.33,East,86,3.0,3.0,85,0.00,,,0.00,Wunderground v.1.15,2013-01-07 15:01:00,
2013-01-07 09:10:00,45.2,40.7,30.33,NE,52,2.0,3.0,84,0.00,,,0.00,Wunderground v.1.15,2013-01-07 15:10:00,
2013-01-07 09:16:00,45.9,41.0,30.33,ENE,75,2.0,7.0,83,0.00,,,0.00,Wunderground v.1.15,2013-01-07 15:16:00,
2013-01-07 09:20:00,46.5,40.7,30.32,NNE,32,3.0,6.0,80,0.00,,,0.00,Wunderground v.1.15,2013-01-07 15:20:00,
2013-01-07 09:26:00,47.1,40.6,30.33,North,9,3.0,6.0,78,0.00,,,0.00,Wunderground v.1.15,2013-01-07 15:26:00,
2013-01-07 09:36:00,47.9,40.4,30.33,East,101,3.0,5.0,75,0.00,,,0.00,Wunderground v.1.15,2013-01-07 15:36:00,
2013-01-07 09:41:00,48.4,40.1,30.33,ENE,64,3.0,4.0,73,0.00,,,0.00,Wunderground v.1.15,2013-01-07 15:41:00,
2013-01-07 09:50:00,49.0,39.6,30.33,ENE,65,3.0,3.0,70,0.00,,,0.00,Wunderground v.1.15,2013-01-07 15:50:00,
2013-01-07 09:56:00,49.3,39.6,30.33,East,92,2.0,3.0,69,0.00,,,0.00,Wunderground v.1.15,2013-01-07 15:56:00,
2013-01-07 10:06:00,50.0,39.5,30.32,East,80,3.0,3.0,67,0.00,,,0.00,Wunderground v.1.15,2013-01-07 16:06:00,
2013-01-07 10:15:00,50.6,39.7,30.32,NE,50,2.0,2.0,66,0.00,,,0.00,Wunderground v.1.15,2013-01-07 16:15:00,
2013-01-07 10:26:00,51.2,39.4,30.31,NNE,17,3.0,4.0,64,0.00,,,0.00,Wunderground v.1.15,2013-01-07 16:26:00,
2013-01-07 10:35:00,51.8,38.8,30.31,ENE,57,3.0,6.0,61,0.00,,,0.00,Wunderground v.1.15,2013-01-07 16:35:00,
2013-01-07 10:41:00,52.2,39.1,30.31,East,79,3.0,5.0,61,0.00,,,0.00,Wunderground v.1.15,2013-01-07 16:41:00,
2013-01-07 10:50:00,52.6,39.1,30.30,ENE,69,2.0,2.0,60,0.00,,,0.00,Wunderground v.1.15,2013-01-07 16:50:00,
2013-01-07 10:56:00,53.0,39.0,30.30,ESE,110,3.0,4.0,59,0.00,,,0.00,Wunderground v.1.15,2013-01-07 16:56:00,
2013-01-07 11:05:00,53.5,39.1,30.30,ESE,109,2.0,2.0,58,0.00,,,0.00,Wunderground v.1.15,2013-01-07 17:05:00,
2013-01-07 11:16:00,54.2,40.2,30.29,East,100,3.0,3.0,59,0.00,,,0.00,Wunderground v.1.15,2013-01-07 17:16:00,
2013-01-07 11:26:00,54.9,39.0,30.29,North,355,2.0,2.0,55,0.00,,,0.00,Wunderground v.1.15,2013-01-07 17:26:00,
2013-01-07 11:31:00,55.1,38.7,30.28,ENE,64,3.0,3.0,54,0.00,,,0.00,Wunderground v.1.15,2013-01-07 17:31:00,
2013-01-07 11:40:00,55.7,38.8,30.28,East,88,2.0,2.0,53,0.00,,,0.00,Wunderground v.1.15,2013-01-07 17:40:00,
2013-01-07 11:46:00,56.0,38.6,30.27,NE,42,2.0,6.0,52,0.00,,,0.00,Wunderground v.1.15,2013-01-07 17:46:00,
2013-01-07 11:56:00,56.4,39.5,30.27,North,11,2.0,3.0,53,0.00,,,0.00,Wunderground v.1.15,2013-01-07 17:56:00,
2013-01-07 12:01:00,56.7,38.8,30.26,NNE,22,2.0,2.0,51,0.00,,,0.00,Wunderground v.1.15,2013-01-07 18:01:00,
2013-01-07 12:11:00,57.2,39.2,30.26,East,98,2.0,7.0,51,0.00,,,0.00,Wunderground v.1.15,2013-01-07 18:11:00,
2013-01-07 12:21:00,57.6,38.6,30.25,ESE,119,2.0,2.0,49,0.00,,,0.00,Wunderground v.1.15,2013-01-07 18:21:00,
2013-01-07 12:30:00,58.0,38.4,30.25,ENE,62,2.0,2.0,48,0.00,,,0.00,Wunderground v.1.15,2013-01-07 18:30:00,
2013-01-07 12:36:00,58.2,37.5,30.25,ENE,64,2.0,3.0,46,0.00,,,0.00,Wunderground v.1.15,2013-01-07 18:36:00,
2013-01-07 12:41:00,58.5,38.3,30.25,NNE,30,2.0,2.0,47,0.00,,,0.00,Wunderground v.1.15,2013-01-07 18:41:00,
2013-01-07 12:46:00,58.7,38.0,30.24,NNE,32,2.0,2.0,46,0.00,,,0.00,Wunderground v.1.15,2013-01-07 18:46:00,
2013-01-07 12:51:00,58.8,38.6,30.24,NE,56,1.0,1.0,47,0.00,,,0.00,Wunderground v.1.15,2013-01-07 18:51:00,
2013-01-07 13:00:00,59.4,39.1,30.23,NNE,16,1.0,1.0,47,0.00,,,0.00,Wunderground v.1.15,2013-01-07 19:00:00,
2013-01-07 13:06:00,59.4,38.0,30.23,NNE,30,1.0,5.0,45,0.00,,,0.00,Wunderground v.1.15,2013-01-07 19:06:00,
2013-01-07 13:11:00,59.6,38.8,30.23,NE,42,1.0,3.0,46,0.00,,,0.00,Wunderground v.1.15,2013-01-07 19:11:00,
2013-01-07 13:21:00,60.0,37.4,30.23,ENE,62,1.0,1.0,43,0.00,,,0.00,Wunderground v.1.15,2013-01-07 19:21:00,
2013-01-07 13:30:00,60.2,37.6,30.23,East,81,1.0,3.0,43,0.00,,,0.00,Wunderground v.1.15,2013-01-07 19:30:00,
2013-01-07 13:36:00,60.4,37.2,30.23,ENE,76,1.0,3.0,42,0.00,,,0.00,Wunderground v.1.15,2013-01-07 19:36:00,
2013-01-07 13:46:00,61.0,39.5,30.23,ENE,65,2.0,2.0,45,0.00,,,0.00,Wunderground v.1.15,2013-01-07 19:46:00,
2013-01-07 13:51:00,61.1,36.6,30.23,NNE,30,1.0,4.0,40,0.00,,,0.00,Wunderground v.1.15,2013-01-07 19:51:00,
2013-01-07 14:00:00,61.2,36.7,30.22,NE,53,1.0,1.0,40,0.00,,,0.00,Wunderground v.1.15,2013-01-07 20:00:00,
2013-01-07 14:06:00,61.6,36.4,30.22,East,98,2.0,3.0,39,0.00,,,0.00,Wunderground v.1.15,2013-01-07 20:06:00,
2013-01-07 14:11:00,62.1,36.8,30.22,NE,42,2.0,2.0,39,0.00,,,0.00,Wunderground v.1.15,2013-01-07 20:11:00,
2013-01-07 14:16:00,62.6,37.3,30.22,NE,42,1.0,2.0,39,0.00,,,0.00,Wunderground v.1.15,2013-01-07 20:16:00,
2013-01-07 14:21:00,62.4,37.1,30.22,NE,42,1.0,1.0,39,0.00,,,0.00,Wunderground v.1.15,2013-01-07 20:21:00,
2013-01-07 14:30:00,62.3,36.4,30.22,NE,55,1.0,1.0,38,0.00,,,0.00,Wunderground v.1.15,2013-01-07 20:30:00,
2013-01-07 14:36:00,62.5,37.2,30.22,NE,50,1.0,2.0,39,0.00,,,0.00,Wunderground v.1.15,2013-01-07 20:36:00,
2013-01-07 14:41:00,62.7,37.4,30.22,NE,36,1.0,1.0,39,0.00,,,0.00,Wunderground v.1.15,2013-01-07 20:41:00,
2013-01-07 14:46:00,63.0,36.3,30.22,ENE,61,1.0,1.0,37,0.00,,,0.00,Wunderground v.1.15,2013-01-07 20:46:00,
2013-01-07 14:55:00,62.6,35.3,30.22,NNE,13,1.0,4.0,36,0.00,,,0.00,Wunderground v.1.15,2013-01-07 20:55:00,
2013-01-07 15:01:00,62.9,38.8,30.22,NNE,30,2.0,2.0,41,0.00,,,0.00,Wunderground v.1.15,2013-01-07 21:01:00,
2013-01-07 15:10:00,63.0,37.6,30.22,NNE,28,1.0,1.0,39,0.00,,,0.00,Wunderground v.1.15,2013-01-07 21:10:00,
2013-01-07 15:16:00,62.7,38.0,30.22,ENE,68,1.0,1.0,40,0.00,,,0.00,Wunderground v.1.15,2013-01-07 21:16:00,
2013-01-07 15:21:00,62.6,38.6,30.22,ESE,109,2.0,2.0,41,0.00,,,0.00,Wunderground v.1.15,2013-01-07 21:21:00,
2013-01-07 15:26:00,62.5,37.2,30.22,NNE,15,1.0,2.0,39,0.00,,,0.00,Wunderground v.1.15,2013-01-07 21:26:00,
2013-01-07 15:31:00,62.3,40.7,30.22,East,98,1.0,1.0,45,0.00,,,0.00,Wunderground v.1.15,2013-01-07 21:31:00,
2013-01-07 15:40:00,60.9,38.2,30.22,ENE,69,1.0,2.0,43,0.00,,,0.00,Wunderground v.1.15,2013-01-07 21:40:00,
2013-01-07 15:46:00,60.7,41.9,30.21,NE,51,1.0,2.0,50,0.00,,,0.00,Wunderground v.1.15,2013-01-07 21:46:00,
2013-01-07 15:56:00,60.1,41.4,30.21,NE,54,0.0,1.0,50,0.00,,,0.00,Wunderground v.1.15,2013-01-07 21:56:00,
2013-01-07 16:05:00,59.8,44.1,30.22,NE,54,0.0,0.0,56,0.00,,,0.00,Wunderground v.1.15,2013-01-07 22:05:00,
2013-01-07 16:10:00,59.6,45.7,30.22,NE,54,0.0,0.0,60,0.00,,,0.00,Wunderground v.1.15,2013-01-07 22:10:00,
2013-01-07 16:15:00,59.3,47.1,30.22,NE,54,0.0,0.0,64,0.00,,,0.00,Wunderground v.1.15,2013-01-07 22:15:00,
2013-01-07 16:20:00,58.7,45.7,30.23,NE,54,0.0,0.0,62,0.00,,,0.00,Wunderground v.1.15,2013-01-07 22:20:00,
2013-01-07 16:26:00,58.0,44.6,30.23,NE,54,0.0,0.0,61,0.00,,,0.00,Wunderground v.1.15,2013-01-07 22:26:00,
2013-01-07 16:31:00,57.5,45.0,30.23,NE,54,0.0,0.0,63,0.00,,,0.00,Wunderground v.1.15,2013-01-07 22:31:00,
2013-01-07 16:40:00,56.6,45.8,30.23,NE,54,0.0,0.0,67,0.00,,,0.00,Wunderground v.1.15,2013-01-07 22:40:00,
2013-01-07 16:45:00,56.1,45.3,30.23,NE,54,0.0,0.0,67,0.00,,,0.00,Wunderground v.1.15,2013-01-07 22:45:00,
2013-01-07 16:50:00,55.6,45.2,30.23,NE,54,0.0,0.0,68,0.00,,,0.00,Wunderground v.1.15,2013-01-07 22:50:00,
2013-01-07 16:56:00,55.1,45.1,30.23,NE,54,0.0,0.0,69,0.00,,,0.00,Wunderground v.1.15,2013-01-07 22:56:00,
2013-01-07 17:01:00,54.6,44.6,30.23,NE,54,0.0,0.0,69,0.00,,,0.00,Wunderground v.1.15,2013-01-07 23:01:00,
2013-01-07 17:11:00,53.6,44.4,30.23,NE,54,0.0,0.0,71,0.00,,,0.00,Wunderground v.1.15,2013-01-07 23:11:00,
2013-01-07 17:20:00,52.7,43.6,30.23,NE,54,0.0,0.0,71,0.00,,,0.00,Wunderground v.1.15,2013-01-07 23:20:00,
2013-01-07 17:26:00,52.2,43.4,30.23,NE,54,0.0,0.0,72,0.00,,,0.00,Wunderground v.1.15,2013-01-07 23:26:00,
2013-01-07 17:31:00,51.9,43.2,30.23,NE,54,0.0,0.0,72,0.00,,,0.00,Wunderground v.1.15,2013-01-07 23:31:00,
2013-01-07 17:40:00,51.0,42.6,30.23,NE,54,0.0,0.0,73,0.00,,,0.00,Wunderground v.1.15,2013-01-07 23:40:00,
2013-01-07 17:46:00,50.6,42.3,30.23,NE,54,0.0,0.0,73,0.00,,,0.00,Wunderground v.1.15,2013-01-07 23:46:00,
2013-01-07 17:51:00,50.3,42.3,30.23,NE,54,0.0,0.0,74,0.00,,,0.00,Wunderground v.1.15,2013-01-07 23:51:00,
2013-01-07 17:56:00,50.0,42.0,30.23,NE,54,0.0,0.0,74,0.00,,,0.00,Wunderground v.1.15,2013-01-07 23:56:00,
2013-01-07 18:05:00,49.7,42.1,30.24,NE,54,0.0,0.0,75,0.00,,,0.00,Wunderground v.1.15,2013-01-08 00:05:00,
2013-01-07 18:16:00,49.2,42.0,30.24,NE,54,0.0,0.0,76,0.00,,,0.00,Wunderground v.1.15,2013-01-08 00:16:00,
2013-01-07 18:26:00,48.8,41.9,30.24,NE,54,0.0,0.0,77,0.00,,,0.00,Wunderground v.1.15,2013-01-08 00:26:00,
2013-01-07 18:31:00,48.6,41.7,30.24,NE,54,0.0,0.0,77,0.00,,,0.00,Wunderground v.1.15,2013-01-08 00:31:00,
2013-01-07 18:40:00,48.4,41.5,30.24,NE,54,0.0,0.0,77,0.00,,,0.00,Wunderground v.1.15,2013-01-08 00:40:00,
2013-01-07 18:46:00,48.2,41.3,30.24,NE,54,0.0,0.0,77,0.00,,,0.00,Wunderground v.1.15,2013-01-08 00:46:00,
2013-01-07 18:51:00,48.1,41.6,30.24,NE,54,0.0,0.0,78,0.00,,,0.00,Wunderground v.1.15,2013-01-08 00:51:00,
2013-01-07 19:01:00,47.9,41.4,30.24,NE,54,0.0,0.0,78,0.00,,,0.00,Wunderground v.1.15,2013-01-08 01:01:00,
2013-01-07 19:11:00,47.6,41.1,30.24,NE,54,0.0,0.0,78,0.00,,,0.00,Wunderground v.1.15,2013-01-08 01:11:00,
2013-01-07 19:16:00,47.5,41.0,30.24,NE,54,0.0,0.0,78,0.00,,,0.00,Wunderground v.1.15,2013-01-08 01:16:00,
2013-01-07 19:21:00,47.3,40.8,30.25,NE,54,0.0,0.0,78,0.00,,,0.00,Wunderground v.1.15,2013-01-08 01:21:00,
2013-01-07 19:30:00,47.0,40.8,30.25,NE,54,0.0,0.0,79,0.00,,,0.00,Wunderground v.1.15,2013-01-08 01:30:00,
2013-01-07 19:36:00,46.8,40.6,30.24,NE,54,0.0,0.0,79,0.00,,,0.00,Wunderground v.1.15,2013-01-08 01:36:00,
2013-01-07 19:40:00,46.7,40.5,30.24,NE,54,0.0,0.0,79,0.00,,,0.00,Wunderground v.1.15,2013-01-08 01:40:00,
2013-01-07 19:46:00,46.5,40.3,30.24,NE,54,0.0,0.0,79,0.00,,,0.00,Wunderground v.1.15,2013-01-08 01:46:00,
2013-01-07 19:55:00,46.2,40.0,30.24,NE,54,0.0,0.0,79,0.00,,,0.00,Wunderground v.1.15,2013-01-08 01:55:00,
2013-01-07 20:06:00,45.9,39.8,30.24,NE,54,0.0,0.0,79,0.00,,,0.00,Wunderground v.1.15,2013-01-08 02:06:00,
2013-01-07 20:16:00,45.6,39.5,30.24,NE,54,0.0,0.0,79,0.00,,,0.00,Wunderground v.1.15,2013-01-08 02:16:00,
2013-01-07 20:25:00,45.3,39.5,30.24,NE,54,0.0,0.0,80,0.00,,,0.00,Wunderground v.1.15,2013-01-08 02:25:00,
2013-01-07 20:30:00,45.2,39.4,30.24,NE,54,0.0,0.0,80,0.00,,,0.00,Wunderground v.1.15,2013-01-08 02:30:00,
2013-01-07 20:36:00,45.1,39.3,30.24,NE,54,0.0,0.0,80,0.00,,,0.00,Wunderground v.1.15,2013-01-08 02:36:00,
2013-01-07 20:41:00,45.0,39.2,30.24,NE,54,0.0,0.0,80,0.00,,,0.00,Wunderground v.1.15,2013-01-08 02:41:00,
2013-01-07 20:46:00,44.9,39.1,30.24,NE,54,0.0,0.0,80,0.00,,,0.00,Wunderground v.1.15,2013-01-08 02:46:00,
2013-01-07 20:55:00,44.7,39.2,30.23,NE,54,0.0,0.0,81,0.00,,,0.00,Wunderground v.1.15,2013-01-08 02:55:00,
2013-01-07 21:00:00,44.6,39.1,30.24,NE,54,0.0,0.0,81,0.00,,,0.00,Wunderground v.1.15,2013-01-08 03:00:00,
2013-01-07 21:06:00,44.4,38.9,30.24,NE,54,0.0,0.0,81,0.00,,,0.00,Wunderground v.1.15,2013-01-08 03:06:00,
2013-01-07 21:11:00,44.3,38.8,30.23,NE,54,0.0,0.0,81,0.00,,,0.00,Wunderground v.1.15,2013-01-08 03:11:00,
2013-01-07 21:16:00,44.2,38.7,30.22,NE,54,0.0,0.0,81,0.00,,,0.00,Wunderground v.1.15,2013-01-08 03:16:00,
2013-01-07 21:25:00,44.1,38.6,30.23,NE,54,0.0,0.0,81,0.00,,,0.00,Wunderground v.1.15,2013-01-08 03:25:00,
2013-01-07 21:30:00,44.1,38.6,30.22,NE,54,0.0,0.0,81,0.00,,,0.00,Wunderground v.1.15,2013-01-08 03:30:00,
2013-01-07 21:35:00,44.1,38.6,30.22,NE,54,0.0,0.0,81,0.00,,,0.00,Wunderground v.1.15,2013-01-08 03:35:00,
2013-01-07 21:40:00,44.2,38.7,30.23,NE,54,0.0,0.0,81,0.00,,,0.00,Wunderground v.1.15,2013-01-08 03:40:00,
2013-01-07 21:46:00,44.3,39.2,30.22,NE,54,0.0,0.0,82,0.00,,,0.00,Wunderground v.1.15,2013-01-08 03:46:00,
2013-01-07 21:51:00,44.5,39.3,30.23,NE,54,0.0,1.0,82,0.00,,,0.00,Wunderground v.1.15,2013-01-08 03:51:00,
2013-01-07 22:00:00,44.7,39.5,30.23,NE,54,0.0,0.0,82,0.00,,,0.00,Wunderground v.1.15,2013-01-08 04:00:00,
2013-01-07 22:06:00,44.8,39.6,30.23,NE,54,0.0,0.0,82,0.00,,,0.00,Wunderground v.1.15,2013-01-08 04:06:00,
2013-01-07 22:11:00,44.9,39.7,30.23,NE,54,0.0,0.0,82,0.00,,,0.00,Wunderground v.1.15,2013-01-08 04:11:00,
2013-01-07 22:16:00,45.0,39.8,30.22,NE,54,0.0,0.0,82,0.00,,,0.00,Wunderground v.1.15,2013-01-08 04:16:00,
2013-01-07 22:25:00,45.0,40.1,30.21,NE,54,0.0,0.0,83,0.00,,,0.00,Wunderground v.1.15,2013-01-08 04:25:00,
2013-01-07 22:36:00,45.2,40.3,30.20,ENE,69,0.0,1.0,83,0.00,,,0.00,Wunderground v.1.15,2013-01-08 04:36:00,
2013-01-07 22:46:00,45.3,40.4,30.20,ENE,68,0.0,0.0,83,0.00,,,0.00,Wunderground v.1.15,2013-01-08 04:46:00,
2013-01-07 22:55:00,45.7,40.8,30.21,ENE,68,0.0,0.0,83,0.00,,,0.00,Wunderground v.1.15,2013-01-08 04:55:00,
2013-01-07 23:06:00,45.8,40.9,30.22,ENE,68,0.0,0.0,83,0.00,,,0.00,Wunderground v.1.15,2013-01-08 05:06:00,
2013-01-07 23:11:00,45.7,40.8,30.22,ENE,68,0.0,0.0,83,0.00,,,0.00,Wunderground v.1.15,2013-01-08 05:11:00,
2013-01-07 23:21:00,45.7,40.8,30.22,ENE,68,0.0,0.0,83,0.00,,,0.00,Wunderground v.1.15,2013-01-08 05:21:00,
2013-01-07 23:30:00,45.7,40.8,30.22,ENE,68,0.0,0.0,83,0.00,,,0.00,Wunderground v.1.15,2013-01-08 05:30:00,
2013-01-07 23:36:00,45.6,40.7,30.21,ENE,68,0.0,0.0,83,0.00,,,0.00,Wunderground v.1.15,2013-01-08 05:36:00,
2013-01-07 23:41:00,45.5,40.6,30.20,ENE,68,0.0,0.0,83,0.00,,,0.00,Wunderground v.1.15,2013-01-08 05:41:00,
2013-01-07 23:50:00,45.3,40.4,30.21,ENE,68,0.0,0.0,83,0.00,,,0.00,Wunderground v.1.15,2013-01-08 05:50:00,
2013-01-07 23:55:00,45.2,40.3,30.21,ENE,68,0.0,0.0,83,0.00,,,0.00,Wunderground v.1.15,2013-01-08 05:55:00,